Year,Month,Day,Hour,Minute,Value (Times are PST for temperature in C)
2016,05,01,00,00,10.50
2016,05,01,00,01,10.40
2016,05,01,00,02,10.40
2016,05,01,00,03,10.40
2016,05,01,00,04,10.40
2016,05,01,00,05,10.30
2016,05,01,00,06,10.30
2016,05,01,00,07,10.30
2016,05,01,00,08,10.30
2016,05,01,00,09,10.20
2016,05,01,00,10,10.20
2016,05,01,00,11,10.20
2016,05,01,00,12,10.20
2016,05,01,00,13,10.20
2016,05,01,00,14,10.10
2016,05,01,00,15,10.10
2016,05,01,00,16,10.10
2016,05,01,00,17,10.10
2016,05,01,00,18,10.10
2016,05,01,00,19,10.10
2016,05,01,00,20,10.00
2016,05,01,00,21,10.00
2016,05,01,00,22,10.00
2016,05,01,00,23,10.00
2016,05,01,00,24,9.90
2016,05,01,00,25,9.90
2016,05,01,00,26,9.90
2016,05,01,00,27,9.90
2016,05,01,00,28,9.90
2016,05,01,00,29,9.80
2016,05,01,00,30,9.80
2016,05,01,00,31,9.80
2016,05,01,00,32,9.80
2016,05,01,00,33,9.80
2016,05,01,00,34,9.80
2016,05,01,00,35,9.70
2016,05,01,00,36,9.70
2016,05,01,00,37,9.70
2016,05,01,00,38,9.70
2016,05,01,00,39,9.60
2016,05,01,00,40,9.60
2016,05,01,00,41,9.60
2016,05,01,00,42,9.60
2016,05,01,00,43,9.60
2016,05,01,00,44,9.60
2016,05,01,00,45,9.50
2016,05,01,00,46,9.50
2016,05,01,00,47,9.50
2016,05,01,00,48,9.40
2016,05,01,00,49,9.40
2016,05,01,00,50,9.40
2016,05,01,00,51,9.40
2016,05,01,00,52,9.40
2016,05,01,00,53,9.40
2016,05,01,00,54,9.40
2016,05,01,00,55,9.30
2016,05,01,00,56,9.30
2016,05,01,00,57,9.30
2016,05,01,00,58,9.30
2016,05,01,00,59,9.30
2016,05,01,01,00,9.30
2016,05,01,01,01,9.30
2016,05,01,01,02,9.30
2016,05,01,01,03,9.30
2016,05,01,01,04,9.20
2016,05,01,01,05,9.20
2016,05,01,01,06,9.20
2016,05,01,01,07,9.20
2016,05,01,01,08,9.20
2016,05,01,01,09,9.20
2016,05,01,01,10,9.20
2016,05,01,01,11,9.10
2016,05,01,01,12,9.10
2016,05,01,01,13,9.10
2016,05,01,01,14,9.10
2016,05,01,01,15,9.10
2016,05,01,01,16,9.00
2016,05,01,01,17,9.00
2016,05,01,01,18,9.00
2016,05,01,01,19,8.90
2016,05,01,01,20,8.90
2016,05,01,01,21,8.90
2016,05,01,01,22,8.90
2016,05,01,01,23,8.90
2016,05,01,01,24,8.90
2016,05,01,01,25,8.90
2016,05,01,01,26,8.90
2016,05,01,01,27,8.90
2016,05,01,01,28,8.90
2016,05,01,01,29,8.90
2016,05,01,01,30,8.90
2016,05,01,01,31,8.90
2016,05,01,01,32,8.90
2016,05,01,01,33,9.00
2016,05,01,01,34,9.00
2016,05,01,01,35,9.00
2016,05,01,01,36,9.10
2016,05,01,01,37,9.10
2016,05,01,01,38,9.10
2016,05,01,01,39,9.10
2016,05,01,01,40,9.10
2016,05,01,01,41,9.10
2016,05,01,01,42,9.10
2016,05,01,01,43,9.10
2016,05,01,01,44,9.10
2016,05,01,01,45,9.10
2016,05,01,01,46,9.10
2016,05,01,01,47,9.10
2016,05,01,01,48,9.10
2016,05,01,01,49,9.10
2016,05,01,01,50,9.10
2016,05,01,01,51,9.00
2016,05,01,01,52,9.00
2016,05,01,01,53,9.00
2016,05,01,01,54,9.00
2016,05,01,01,55,8.90
2016,05,01,01,56,8.90
2016,05,01,01,57,8.90
2016,05,01,01,58,8.90
2016,05,01,01,59,8.90
2016,05,01,02,00,8.90
2016,05,01,02,01,8.80
2016,05,01,02,02,8.80
2016,05,01,02,03,8.80
2016,05,01,02,04,8.80
2016,05,01,02,05,8.80
2016,05,01,02,06,8.80
2016,05,01,02,07,8.80
2016,05,01,02,08,8.80
2016,05,01,02,09,8.80
2016,05,01,02,10,8.80
2016,05,01,02,11,8.70
2016,05,01,02,12,8.70
2016,05,01,02,13,8.70
2016,05,01,02,14,8.70
2016,05,01,02,15,8.70
2016,05,01,02,16,8.70
2016,05,01,02,17,8.60
2016,05,01,02,18,8.60
2016,05,01,02,19,8.60
2016,05,01,02,20,8.60
2016,05,01,02,21,8.50
2016,05,01,02,22,8.50
2016,05,01,02,23,8.50
2016,05,01,02,24,8.40
2016,05,01,02,25,8.40
2016,05,01,02,26,8.40
2016,05,01,02,27,8.40
2016,05,01,02,28,8.40
2016,05,01,02,29,8.40
2016,05,01,02,30,8.40
2016,05,01,02,31,8.40
2016,05,01,02,32,8.50
2016,05,01,02,33,8.50
2016,05,01,02,34,8.50
2016,05,01,02,35,8.60
2016,05,01,02,36,8.60
2016,05,01,02,37,8.60
2016,05,01,02,38,8.60
2016,05,01,02,39,8.60
2016,05,01,02,40,8.70
2016,05,01,02,41,8.70
2016,05,01,02,42,8.70
2016,05,01,02,43,8.70
2016,05,01,02,44,8.70
2016,05,01,02,45,8.70
2016,05,01,02,46,8.70
2016,05,01,02,47,8.70
2016,05,01,02,48,8.70
2016,05,01,02,49,8.70
2016,05,01,02,50,8.70
2016,05,01,02,51,8.70
2016,05,01,02,52,8.60
2016,05,01,02,53,8.60
2016,05,01,02,54,8.60
2016,05,01,02,55,8.60
2016,05,01,02,56,8.50
2016,05,01,02,57,8.50
2016,05,01,02,58,8.50
2016,05,01,02,59,8.40
2016,05,01,03,00,8.40
2016,05,01,03,01,8.40
2016,05,01,03,02,8.40
2016,05,01,03,03,8.30
2016,05,01,03,04,8.30
2016,05,01,03,05,8.30
2016,05,01,03,06,8.30
2016,05,01,03,07,8.20
2016,05,01,03,08,8.20
2016,05,01,03,09,8.20
2016,05,01,03,10,8.20
2016,05,01,03,11,8.20
2016,05,01,03,12,8.20
2016,05,01,03,13,8.20
2016,05,01,03,14,8.20
2016,05,01,03,15,8.20
2016,05,01,03,16,8.20
2016,05,01,03,17,8.20
2016,05,01,03,18,8.20
2016,05,01,03,19,8.20
2016,05,01,03,20,8.20
2016,05,01,03,21,8.20
2016,05,01,03,22,8.20
2016,05,01,03,23,8.20
2016,05,01,03,24,8.20
2016,05,01,03,25,8.20
2016,05,01,03,26,8.20
2016,05,01,03,27,8.20
2016,05,01,03,28,8.20
2016,05,01,03,29,8.20
2016,05,01,03,30,8.20
2016,05,01,03,31,8.20
2016,05,01,03,32,8.20
2016,05,01,03,33,8.20
2016,05,01,03,34,8.20
2016,05,01,03,35,8.20
2016,05,01,03,36,8.20
2016,05,01,03,37,8.20
2016,05,01,03,38,8.20
2016,05,01,03,39,8.20
2016,05,01,03,40,8.20
2016,05,01,03,41,8.20
2016,05,01,03,42,8.20
2016,05,01,03,43,8.20
2016,05,01,03,44,8.20
2016,05,01,03,45,8.20
2016,05,01,03,46,8.20
2016,05,01,03,47,8.20
2016,05,01,03,48,8.20
2016,05,01,03,49,8.20
2016,05,01,03,50,8.20
2016,05,01,03,51,8.20
2016,05,01,03,52,8.20
2016,05,01,03,53,8.10
2016,05,01,03,54,8.10
2016,05,01,03,55,8.10
2016,05,01,03,56,8.10
2016,05,01,03,57,8.10
2016,05,01,03,58,8.10
2016,05,01,03,59,8.10
2016,05,01,04,00,8.10
2016,05,01,04,01,8.10
2016,05,01,04,02,8.10
2016,05,01,04,03,8.10
2016,05,01,04,04,8.10
2016,05,01,04,05,8.10
2016,05,01,04,06,8.10
2016,05,01,04,07,8.10
2016,05,01,04,08,8.00
2016,05,01,04,09,8.00
2016,05,01,04,10,8.00
2016,05,01,04,11,7.90
2016,05,01,04,12,7.90
2016,05,01,04,13,7.90
2016,05,01,04,14,7.90
2016,05,01,04,15,7.80
2016,05,01,04,16,7.80
2016,05,01,04,17,7.80
2016,05,01,04,18,7.80
2016,05,01,04,19,7.80
2016,05,01,04,20,7.80
2016,05,01,04,21,7.80
2016,05,01,04,22,7.80
2016,05,01,04,23,7.80
2016,05,01,04,24,7.80
2016,05,01,04,25,7.80
2016,05,01,04,26,7.80
2016,05,01,04,27,7.80
2016,05,01,04,28,7.80
2016,05,01,04,29,7.80
2016,05,01,04,30,7.80
2016,05,01,04,31,7.80
2016,05,01,04,32,7.80
2016,05,01,04,33,7.80
2016,05,01,04,34,7.70
2016,05,01,04,35,7.70
2016,05,01,04,36,7.70
2016,05,01,04,37,7.70
2016,05,01,04,38,7.70
2016,05,01,04,39,7.60
2016,05,01,04,40,7.60
2016,05,01,04,41,7.60
2016,05,01,04,42,7.60
2016,05,01,04,43,7.60
2016,05,01,04,44,7.60
2016,05,01,04,45,7.70
2016,05,01,04,46,7.70
2016,05,01,04,47,7.70
2016,05,01,04,48,7.70
2016,05,01,04,49,7.70
2016,05,01,04,50,7.80
2016,05,01,04,51,7.80
2016,05,01,04,52,7.80
2016,05,01,04,53,7.80
2016,05,01,04,54,7.80
2016,05,01,04,55,7.80
2016,05,01,04,56,7.80
2016,05,01,04,57,7.80
2016,05,01,04,58,7.80
2016,05,01,04,59,7.80
2016,05,01,05,00,7.80
2016,05,01,05,01,7.80
2016,05,01,05,02,7.90
2016,05,01,05,03,7.90
2016,05,01,05,04,7.90
2016,05,01,05,05,7.90
2016,05,01,05,06,7.90
2016,05,01,05,07,7.90
2016,05,01,05,08,7.90
2016,05,01,05,09,7.90
2016,05,01,05,10,7.90
2016,05,01,05,11,7.90
2016,05,01,05,12,7.90
2016,05,01,05,13,7.90
2016,05,01,05,14,7.90
2016,05,01,05,15,7.90
2016,05,01,05,16,7.90
2016,05,01,05,17,7.90
2016,05,01,05,18,7.90
2016,05,01,05,19,8.00
2016,05,01,05,20,8.00
2016,05,01,05,21,8.00
2016,05,01,05,22,8.10
2016,05,01,05,23,8.10
2016,05,01,05,24,8.10
2016,05,01,05,25,8.20
2016,05,01,05,26,8.20
2016,05,01,05,27,8.20
2016,05,01,05,28,8.20
2016,05,01,05,29,8.20
2016,05,01,05,30,8.30
2016,05,01,05,31,8.30
2016,05,01,05,32,8.30
2016,05,01,05,33,8.30
2016,05,01,05,34,8.30
2016,05,01,05,35,8.30
2016,05,01,05,36,8.30
2016,05,01,05,37,8.30
2016,05,01,05,38,8.30
2016,05,01,05,39,8.40
2016,05,01,05,40,8.40
2016,05,01,05,41,8.40
2016,05,01,05,42,8.40
2016,05,01,05,43,8.40
2016,05,01,05,44,8.40
2016,05,01,05,45,8.40
2016,05,01,05,46,8.40
2016,05,01,05,47,8.40
2016,05,01,05,48,8.40
2016,05,01,05,49,8.40
2016,05,01,05,50,8.50
2016,05,01,05,51,8.50
2016,05,01,05,52,8.40
2016,05,01,05,53,8.40
2016,05,01,05,54,8.40
2016,05,01,05,55,8.40
2016,05,01,05,56,8.30
2016,05,01,05,57,8.30
2016,05,01,05,58,8.30
2016,05,01,05,59,8.20
2016,05,01,06,00,8.20
2016,05,01,06,01,8.10
2016,05,01,06,02,8.10
2016,05,01,06,03,8.00
2016,05,01,06,04,8.00
2016,05,01,06,05,7.90
2016,05,01,06,06,7.90
2016,05,01,06,07,7.90
2016,05,01,06,08,7.80
2016,05,01,06,09,7.80
2016,05,01,06,10,7.80
2016,05,01,06,11,7.80
2016,05,01,06,12,7.80
2016,05,01,06,13,7.70
2016,05,01,06,14,7.70
2016,05,01,06,15,7.70
2016,05,01,06,16,7.70
2016,05,01,06,17,7.70
2016,05,01,06,18,7.70
2016,05,01,06,19,7.70
2016,05,01,06,20,7.70
2016,05,01,06,21,7.70
2016,05,01,06,22,7.70
2016,05,01,06,23,7.70
2016,05,01,06,24,7.70
2016,05,01,06,25,7.70
2016,05,01,06,26,7.70
2016,05,01,06,27,7.70
2016,05,01,06,28,7.70
2016,05,01,06,29,7.70
2016,05,01,06,30,7.80
2016,05,01,06,31,7.80
2016,05,01,06,32,7.80
2016,05,01,06,33,7.80
2016,05,01,06,34,7.90
2016,05,01,06,35,7.90
2016,05,01,06,36,7.90
2016,05,01,06,37,7.90
2016,05,01,06,38,8.00
2016,05,01,06,39,8.00
2016,05,01,06,40,8.00
2016,05,01,06,41,8.10
2016,05,01,06,42,8.10
2016,05,01,06,43,8.10
2016,05,01,06,44,8.20
2016,05,01,06,45,8.20
2016,05,01,06,46,8.20
2016,05,01,06,47,8.30
2016,05,01,06,48,8.30
2016,05,01,06,49,8.40
2016,05,01,06,50,8.40
2016,05,01,06,51,8.50
2016,05,01,06,52,8.60
2016,05,01,06,53,8.60
2016,05,01,06,54,8.70
2016,05,01,06,55,8.70
2016,05,01,06,56,8.80
2016,05,01,06,57,8.90
2016,05,01,06,58,8.90
2016,05,01,06,59,9.00
2016,05,01,07,00,9.10
2016,05,01,07,01,9.20
2016,05,01,07,02,9.20
2016,05,01,07,03,9.30
2016,05,01,07,04,9.30
2016,05,01,07,05,9.40
2016,05,01,07,06,9.50
2016,05,01,07,07,9.50
2016,05,01,07,08,9.60
2016,05,01,07,09,9.60
2016,05,01,07,10,9.70
2016,05,01,07,11,9.70
2016,05,01,07,12,9.80
2016,05,01,07,13,9.90
2016,05,01,07,14,9.90
2016,05,01,07,15,10.00
2016,05,01,07,16,10.10
2016,05,01,07,17,10.10
2016,05,01,07,18,10.10
2016,05,01,07,19,10.20
2016,05,01,07,20,10.30
2016,05,01,07,21,10.30
2016,05,01,07,22,10.40
2016,05,01,07,23,10.40
2016,05,01,07,24,10.50
2016,05,01,07,25,10.50
2016,05,01,07,26,10.60
2016,05,01,07,27,10.70
2016,05,01,07,28,10.80
2016,05,01,07,29,10.80
2016,05,01,07,30,10.90
2016,05,01,07,31,10.90
2016,05,01,07,32,10.90
2016,05,01,07,33,10.90
2016,05,01,07,34,11.00
2016,05,01,07,35,11.00
2016,05,01,07,36,11.10
2016,05,01,07,37,11.10
2016,05,01,07,38,11.20
2016,05,01,07,39,11.20
2016,05,01,07,40,11.30
2016,05,01,07,41,11.40
2016,05,01,07,42,11.50
2016,05,01,07,43,11.60
2016,05,01,07,44,11.70
2016,05,01,07,45,11.70
2016,05,01,07,46,11.80
2016,05,01,07,47,11.90
2016,05,01,07,48,11.90
2016,05,01,07,49,12.00
2016,05,01,07,50,12.10
2016,05,01,07,51,12.10
2016,05,01,07,52,12.20
2016,05,01,07,53,12.30
2016,05,01,07,54,12.40
2016,05,01,07,55,12.50
2016,05,01,07,56,12.50
2016,05,01,07,57,12.60
2016,05,01,07,58,12.70
2016,05,01,07,59,12.70
2016,05,01,08,00,12.80
2016,05,01,08,01,12.80
2016,05,01,08,02,12.90
2016,05,01,08,03,13.00
2016,05,01,08,04,13.00
2016,05,01,08,05,13.10
2016,05,01,08,06,13.20
2016,05,01,08,07,13.30
2016,05,01,08,08,13.30
2016,05,01,08,09,13.40
2016,05,01,08,10,13.40
2016,05,01,08,11,13.50
2016,05,01,08,12,13.60
2016,05,01,08,13,13.60
2016,05,01,08,14,13.70
2016,05,01,08,15,13.70
2016,05,01,08,16,13.80
2016,05,01,08,17,13.80
2016,05,01,08,18,13.90
2016,05,01,08,19,13.90
2016,05,01,08,20,13.90
2016,05,01,08,21,13.90
2016,05,01,08,22,14.00
2016,05,01,08,23,14.00
2016,05,01,08,24,14.10
2016,05,01,08,25,14.10
2016,05,01,08,26,14.10
2016,05,01,08,27,14.20
2016,05,01,08,28,14.20
2016,05,01,08,29,14.20
2016,05,01,08,30,14.30
2016,05,01,08,31,14.30
2016,05,01,08,32,14.30
2016,05,01,08,33,14.30
2016,05,01,08,34,14.40
2016,05,01,08,35,14.40
2016,05,01,08,36,14.40
2016,05,01,08,37,14.50
2016,05,01,08,38,14.50
2016,05,01,08,39,14.60
2016,05,01,08,40,14.60
2016,05,01,08,41,14.70
2016,05,01,08,42,14.70
2016,05,01,08,43,14.80
2016,05,01,08,44,14.80
2016,05,01,08,45,14.80
2016,05,01,08,46,14.90
2016,05,01,08,47,14.90
2016,05,01,08,48,15.00
2016,05,01,08,49,15.00
2016,05,01,08,50,15.10
2016,05,01,08,51,15.10
2016,05,01,08,52,15.10
2016,05,01,08,53,15.10
2016,05,01,08,54,15.20
2016,05,01,08,55,15.20
2016,05,01,08,56,15.20
2016,05,01,08,57,15.30
2016,05,01,08,58,15.30
2016,05,01,08,59,15.30
2016,05,01,09,00,15.30
2016,05,01,09,01,15.40
2016,05,01,09,02,15.40
2016,05,01,09,03,15.40
2016,05,01,09,04,15.40
2016,05,01,09,05,15.40
2016,05,01,09,06,15.40
2016,05,01,09,07,15.40
2016,05,01,09,08,15.40
2016,05,01,09,09,15.40
2016,05,01,09,10,15.50
2016,05,01,09,11,15.50
2016,05,01,09,12,15.50
2016,05,01,09,13,15.50
2016,05,01,09,14,15.60
2016,05,01,09,15,15.60
2016,05,01,09,16,15.60
2016,05,01,09,17,15.70
2016,05,01,09,18,15.70
2016,05,01,09,19,15.70
2016,05,01,09,20,15.80
2016,05,01,09,21,15.80
2016,05,01,09,22,15.80
2016,05,01,09,23,15.80
2016,05,01,09,24,15.80
2016,05,01,09,25,15.90
2016,05,01,09,26,15.90
2016,05,01,09,27,15.90
2016,05,01,09,28,15.90
2016,05,01,09,29,15.90
2016,05,01,09,30,16.00
2016,05,01,09,31,16.00
2016,05,01,09,32,16.10
2016,05,01,09,33,16.10
2016,05,01,09,34,16.10
2016,05,01,09,35,16.10
2016,05,01,09,36,16.20
2016,05,01,09,37,16.20
2016,05,01,09,38,16.20
2016,05,01,09,39,16.20
2016,05,01,09,40,16.20
2016,05,01,09,41,16.30
2016,05,01,09,42,16.30
2016,05,01,09,43,16.30
2016,05,01,09,44,16.40
2016,05,01,09,45,16.40
2016,05,01,09,46,16.50
2016,05,01,09,47,16.50
2016,05,01,09,48,16.50
2016,05,01,09,49,16.50
2016,05,01,09,50,16.50
2016,05,01,09,51,16.50
2016,05,01,09,52,16.50
2016,05,01,09,53,16.50
2016,05,01,09,54,16.50
2016,05,01,09,55,16.60
2016,05,01,09,56,16.60
2016,05,01,09,57,16.60
2016,05,01,09,58,16.60
2016,05,01,09,59,16.60
2016,05,01,10,00,16.60
2016,05,01,10,01,16.70
2016,05,01,10,02,16.70
2016,05,01,10,03,16.70
2016,05,01,10,04,16.70
2016,05,01,10,05,16.70
2016,05,01,10,06,16.70
2016,05,01,10,07,16.70
2016,05,01,10,08,16.80
2016,05,01,10,09,16.80
2016,05,01,10,10,16.80
2016,05,01,10,11,16.90
2016,05,01,10,12,16.90
2016,05,01,10,13,16.90
2016,05,01,10,14,17.00
2016,05,01,10,15,17.00
2016,05,01,10,16,17.00
2016,05,01,10,17,17.00
2016,05,01,10,18,17.00
2016,05,01,10,19,17.00
2016,05,01,10,20,17.00
2016,05,01,10,21,16.90
2016,05,01,10,22,16.90
2016,05,01,10,23,16.90
2016,05,01,10,24,17.00
2016,05,01,10,25,17.00
2016,05,01,10,26,17.00
2016,05,01,10,27,17.10
2016,05,01,10,28,17.10
2016,05,01,10,29,17.10
2016,05,01,10,30,17.20
2016,05,01,10,31,17.20
2016,05,01,10,32,17.20
2016,05,01,10,33,17.20
2016,05,01,10,34,17.20
2016,05,01,10,35,17.30
2016,05,01,10,36,17.30
2016,05,01,10,37,17.30
2016,05,01,10,38,17.40
2016,05,01,10,39,17.40
2016,05,01,10,40,17.40
2016,05,01,10,41,17.40
2016,05,01,10,42,17.40
2016,05,01,10,43,17.50
2016,05,01,10,44,17.50
2016,05,01,10,45,17.60
2016,05,01,10,46,17.60
2016,05,01,10,47,17.70
2016,05,01,10,48,17.70
2016,05,01,10,49,17.80
2016,05,01,10,50,17.80
2016,05,01,10,51,17.80
2016,05,01,10,52,17.90
2016,05,01,10,53,17.90
2016,05,01,10,54,17.90
2016,05,01,10,55,17.90
2016,05,01,10,56,17.90
2016,05,01,10,57,17.90
2016,05,01,10,58,17.80
2016,05,01,10,59,17.80
2016,05,01,11,00,17.80
2016,05,01,11,01,17.80
2016,05,01,11,02,17.80
2016,05,01,11,03,17.90
2016,05,01,11,04,17.90
2016,05,01,11,05,18.00
2016,05,01,11,06,18.00
2016,05,01,11,07,18.10
2016,05,01,11,08,18.10
2016,05,01,11,09,18.10
2016,05,01,11,10,18.10
2016,05,01,11,11,18.20
2016,05,01,11,12,18.20
2016,05,01,11,13,18.20
2016,05,01,11,14,18.30
2016,05,01,11,15,18.40
2016,05,01,11,16,18.40
2016,05,01,11,17,18.50
2016,05,01,11,18,18.50
2016,05,01,11,19,18.60
2016,05,01,11,20,18.60
2016,05,01,11,21,18.60
2016,05,01,11,22,18.60
2016,05,01,11,23,18.60
2016,05,01,11,24,18.60
2016,05,01,11,25,18.70
2016,05,01,11,26,18.70
2016,05,01,11,27,18.80
2016,05,01,11,28,18.80
2016,05,01,11,29,18.80
2016,05,01,11,30,18.90
2016,05,01,11,31,19.00
2016,05,01,11,32,19.00
2016,05,01,11,33,19.10
2016,05,01,11,34,19.20
2016,05,01,11,35,19.20
2016,05,01,11,36,19.30
2016,05,01,11,37,19.30
2016,05,01,11,38,19.30
2016,05,01,11,39,19.40
2016,05,01,11,40,19.40
2016,05,01,11,41,19.40
2016,05,01,11,42,19.40
2016,05,01,11,43,19.50
2016,05,01,11,44,19.50
2016,05,01,11,45,19.50
2016,05,01,11,46,19.50
2016,05,01,11,47,19.60
2016,05,01,11,48,19.60
2016,05,01,11,49,19.60
2016,05,01,11,50,19.60
2016,05,01,11,51,19.60
2016,05,01,11,52,19.60
2016,05,01,11,53,19.60
2016,05,01,11,54,19.50
2016,05,01,11,55,19.60
2016,05,01,11,56,19.60
2016,05,01,11,57,19.60
2016,05,01,11,58,19.60
2016,05,01,11,59,19.70
2016,05,01,12,00,19.70
2016,05,01,12,01,19.70
2016,05,01,12,02,19.80
2016,05,01,12,03,19.80
2016,05,01,12,04,19.90
2016,05,01,12,05,19.90
2016,05,01,12,06,19.90
2016,05,01,12,07,19.90
2016,05,01,12,08,19.90
2016,05,01,12,09,20.00
2016,05,01,12,10,20.00
2016,05,01,12,11,20.00
2016,05,01,12,12,20.00
2016,05,01,12,13,20.00
2016,05,01,12,14,20.00
2016,05,01,12,15,20.00
2016,05,01,12,16,20.10
2016,05,01,12,17,20.10
2016,05,01,12,18,20.10
2016,05,01,12,19,20.20
2016,05,01,12,20,20.20
2016,05,01,12,21,20.30
2016,05,01,12,22,20.30
2016,05,01,12,23,20.30
2016,05,01,12,24,20.30
2016,05,01,12,25,20.30
2016,05,01,12,26,20.30
2016,05,01,12,27,20.40
2016,05,01,12,28,20.50
2016,05,01,12,29,20.50
2016,05,01,12,30,20.60
2016,05,01,12,31,20.60
2016,05,01,12,32,20.60
2016,05,01,12,33,20.60
2016,05,01,12,34,20.60
2016,05,01,12,35,20.60
2016,05,01,12,36,20.60
2016,05,01,12,37,20.60
2016,05,01,12,38,20.60
2016,05,01,12,39,20.60
2016,05,01,12,40,20.50
2016,05,01,12,41,20.50
2016,05,01,12,42,20.50
2016,05,01,12,43,20.50
2016,05,01,12,44,20.60
2016,05,01,12,45,20.60
2016,05,01,12,46,20.60
2016,05,01,12,47,20.70
2016,05,01,12,48,20.70
2016,05,01,12,49,20.80
2016,05,01,12,50,20.80
2016,05,01,12,51,20.80
2016,05,01,12,52,20.80
2016,05,01,12,53,20.90
2016,05,01,12,54,20.90
2016,05,01,12,55,20.90
2016,05,01,12,56,20.90
2016,05,01,12,57,20.90
2016,05,01,12,58,20.90
2016,05,01,12,59,20.90
2016,05,01,13,00,20.90
2016,05,01,13,01,20.90
2016,05,01,13,02,20.90
2016,05,01,13,03,20.90
2016,05,01,13,04,21.00
2016,05,01,13,05,21.00
2016,05,01,13,06,21.00
2016,05,01,13,07,21.00
2016,05,01,13,08,21.00
2016,05,01,13,09,21.00
2016,05,01,13,10,20.90
2016,05,01,13,11,20.90
2016,05,01,13,12,20.90
2016,05,01,13,13,20.90
2016,05,01,13,14,20.80
2016,05,01,13,15,20.80
2016,05,01,13,16,20.80
2016,05,01,13,17,20.80
2016,05,01,13,18,20.90
2016,05,01,13,19,20.90
2016,05,01,13,20,20.90
2016,05,01,13,21,20.90
2016,05,01,13,22,20.90
2016,05,01,13,23,20.90
2016,05,01,13,24,20.90
2016,05,01,13,25,20.90
2016,05,01,13,26,20.90
2016,05,01,13,27,20.90
2016,05,01,13,28,20.90
2016,05,01,13,29,20.90
2016,05,01,13,30,20.80
2016,05,01,13,31,20.80
2016,05,01,13,32,20.80
2016,05,01,13,33,20.80
2016,05,01,13,34,20.80
2016,05,01,13,35,20.80
2016,05,01,13,36,20.80
2016,05,01,13,37,20.80
2016,05,01,13,38,20.80
2016,05,01,13,39,20.90
2016,05,01,13,40,20.90
2016,05,01,13,41,20.90
2016,05,01,13,42,20.90
2016,05,01,13,43,21.00
2016,05,01,13,44,21.00
2016,05,01,13,45,21.00
2016,05,01,13,46,21.10
2016,05,01,13,47,21.10
2016,05,01,13,48,21.20
2016,05,01,13,49,21.20
2016,05,01,13,50,21.30
2016,05,01,13,51,21.40
2016,05,01,13,52,21.50
2016,05,01,13,53,21.60
2016,05,01,13,54,21.70
2016,05,01,13,55,21.70
2016,05,01,13,56,21.70
2016,05,01,13,57,21.70
2016,05,01,13,58,21.70
2016,05,01,13,59,21.70
2016,05,01,14,00,21.60
2016,05,01,14,01,21.70
2016,05,01,14,02,21.70
2016,05,01,14,03,21.70
2016,05,01,14,04,21.70
2016,05,01,14,05,21.70
2016,05,01,14,06,21.70
2016,05,01,14,07,21.80
2016,05,01,14,08,21.80
2016,05,01,14,09,21.80
2016,05,01,14,10,21.80
2016,05,01,14,11,21.80
2016,05,01,14,12,21.80
2016,05,01,14,13,21.80
2016,05,01,14,14,21.80
2016,05,01,14,15,21.90
2016,05,01,14,16,21.90
2016,05,01,14,17,21.90
2016,05,01,14,18,22.00
2016,05,01,14,19,22.10
2016,05,01,14,20,22.10
2016,05,01,14,21,22.20
2016,05,01,14,22,22.20
2016,05,01,14,23,22.20
2016,05,01,14,24,22.30
2016,05,01,14,25,22.30
2016,05,01,14,26,22.30
2016,05,01,14,27,22.30
2016,05,01,14,28,22.30
2016,05,01,14,29,22.30
2016,05,01,14,30,22.30
2016,05,01,14,31,22.30
2016,05,01,14,32,22.40
2016,05,01,14,33,22.40
2016,05,01,14,34,22.40
2016,05,01,14,35,22.40
2016,05,01,14,36,22.40
2016,05,01,14,37,22.40
2016,05,01,14,38,22.40
2016,05,01,14,39,22.40
2016,05,01,14,40,22.50
2016,05,01,14,41,22.50
2016,05,01,14,42,22.50
2016,05,01,14,43,22.50
2016,05,01,14,44,22.50
2016,05,01,14,45,22.60
2016,05,01,14,46,22.60
2016,05,01,14,47,22.50
2016,05,01,14,48,22.50
2016,05,01,14,49,22.50
2016,05,01,14,50,22.50
2016,05,01,14,51,22.50
2016,05,01,14,52,22.50
2016,05,01,14,53,22.50
2016,05,01,14,54,22.60
2016,05,01,14,55,22.60
2016,05,01,14,56,22.70
2016,05,01,14,57,22.70
2016,05,01,14,58,22.80
2016,05,01,14,59,22.90
2016,05,01,15,00,23.00
2016,05,01,15,01,23.10
2016,05,01,15,02,23.10
2016,05,01,15,03,23.20
2016,05,01,15,04,23.20
2016,05,01,15,05,23.20
2016,05,01,15,06,23.30
2016,05,01,15,07,23.30
2016,05,01,15,08,23.30
2016,05,01,15,09,23.30
2016,05,01,15,10,23.30
2016,05,01,15,11,23.30
2016,05,01,15,12,23.30
2016,05,01,15,13,23.30
2016,05,01,15,14,23.30
2016,05,01,15,15,23.30
2016,05,01,15,16,23.30
2016,05,01,15,17,23.40
2016,05,01,15,18,23.40
2016,05,01,15,19,23.40
2016,05,01,15,20,23.40
2016,05,01,15,21,23.40
2016,05,01,15,22,23.50
2016,05,01,15,23,23.50
2016,05,01,15,24,23.50
2016,05,01,15,25,23.60
2016,05,01,15,26,23.60
2016,05,01,15,27,23.60
2016,05,01,15,28,23.70
2016,05,01,15,29,23.70
2016,05,01,15,30,23.70
2016,05,01,15,31,23.70
2016,05,01,15,32,23.80
2016,05,01,15,33,23.80
2016,05,01,15,34,23.80
2016,05,01,15,35,23.80
2016,05,01,15,36,23.80
2016,05,01,15,37,23.90
2016,05,01,15,38,23.90
2016,05,01,15,39,23.90
2016,05,01,15,40,23.90
2016,05,01,15,41,23.90
2016,05,01,15,42,23.90
2016,05,01,15,43,23.90
2016,05,01,15,44,24.00
2016,05,01,15,45,24.00
2016,05,01,15,46,24.00
2016,05,01,15,47,24.10
2016,05,01,15,48,24.10
2016,05,01,15,49,24.10
2016,05,01,15,50,24.20
2016,05,01,15,51,24.20
2016,05,01,15,52,24.20
2016,05,01,15,53,24.30
2016,05,01,15,54,24.30
2016,05,01,15,55,24.40
2016,05,01,15,56,24.50
2016,05,01,15,57,24.50
2016,05,01,15,58,24.60
2016,05,01,15,59,24.60
2016,05,01,16,00,24.70
2016,05,01,16,01,24.70
2016,05,01,16,02,24.70
2016,05,01,16,03,24.60
2016,05,01,16,04,24.60
2016,05,01,16,05,24.60
2016,05,01,16,06,24.60
2016,05,01,16,07,24.60
2016,05,01,16,08,24.60
2016,05,01,16,09,24.60
2016,05,01,16,10,24.60
2016,05,01,16,11,24.60
2016,05,01,16,12,24.60
2016,05,01,16,13,24.60
2016,05,01,16,14,24.60
2016,05,01,16,15,24.60
2016,05,01,16,16,24.60
2016,05,01,16,17,24.60
2016,05,01,16,18,24.60
2016,05,01,16,19,24.60
2016,05,01,16,20,24.60
2016,05,01,16,21,24.70
2016,05,01,16,22,24.70
2016,05,01,16,23,24.70
2016,05,01,16,24,24.80
2016,05,01,16,25,24.80
2016,05,01,16,26,24.80
2016,05,01,16,27,24.90
2016,05,01,16,28,24.90
2016,05,01,16,29,24.90
2016,05,01,16,30,24.90
2016,05,01,16,31,24.90
2016,05,01,16,32,24.90
2016,05,01,16,33,24.90
2016,05,01,16,34,24.90
2016,05,01,16,35,24.90
2016,05,01,16,36,24.90
2016,05,01,16,37,25.00
2016,05,01,16,38,25.10
2016,05,01,16,39,25.20
2016,05,01,16,40,25.20
2016,05,01,16,41,25.30
2016,05,01,16,42,25.30
2016,05,01,16,43,25.30
2016,05,01,16,44,25.30
2016,05,01,16,45,25.30
2016,05,01,16,46,25.30
2016,05,01,16,47,25.20
2016,05,01,16,48,25.20
2016,05,01,16,49,25.20
2016,05,01,16,50,25.20
2016,05,01,16,51,25.20
2016,05,01,16,52,25.20
2016,05,01,16,53,25.20
2016,05,01,16,54,25.20
2016,05,01,16,55,25.20
2016,05,01,16,56,25.20
2016,05,01,16,57,25.20
2016,05,01,16,58,25.10
2016,05,01,16,59,25.10
2016,05,01,17,00,25.10
2016,05,01,17,01,25.00
2016,05,01,17,02,25.00
2016,05,01,17,03,24.90
2016,05,01,17,04,24.90
2016,05,01,17,05,24.90
2016,05,01,17,06,24.90
2016,05,01,17,07,24.90
2016,05,01,17,08,24.80
2016,05,01,17,09,24.80
2016,05,01,17,10,24.80
2016,05,01,17,11,24.80
2016,05,01,17,12,24.80
2016,05,01,17,13,24.80
2016,05,01,17,14,24.70
2016,05,01,17,15,24.70
2016,05,01,17,16,24.70
2016,05,01,17,17,24.70
2016,05,01,17,18,24.80
2016,05,01,17,19,24.80
2016,05,01,17,20,24.80
2016,05,01,17,21,24.80
2016,05,01,17,22,24.80
2016,05,01,17,23,24.80
2016,05,01,17,24,24.80
2016,05,01,17,25,24.80
2016,05,01,17,26,24.80
2016,05,01,17,27,24.80
2016,05,01,17,28,24.80
2016,05,01,17,29,24.80
2016,05,01,17,30,24.80
2016,05,01,17,31,24.80
2016,05,01,17,32,24.80
2016,05,01,17,33,24.70
2016,05,01,17,34,24.70
2016,05,01,17,35,24.70
2016,05,01,17,36,24.70
2016,05,01,17,37,24.70